Weather History for Al Udeid, Qatar

Change the Weather History Date:

Thursday, March 6, 2014

  Actual Average Record
Temperature  
Mean Temperature 75 °F -  
Max Temperature 88 °F - - ()
Min Temperature 62 °F - - ()
Cooling Degree Days 10    
Growing Degree Days 25 (Base 50)    
Moisture  
Dew Point 48 °F    
Average Humidity 43    
Maximum Humidity 72    
Minimum Humidity 23    
Precipitation  
Precipitation 0.00 in - - ()
Sea Level Pressure  
Sea Level Pressure 29.96 in    
Wind  
Wind Speed 5 mph ()    
Max Wind Speed 13 mph    
Max Gust Speed -    
Visibility 6.2 miles    
Events      
T = Trace of Precipitation, MM = Missing Value Source: Averaged Metar Reports

Daily Weather History Graph

Daily Weather History Graph

Search for Another Location

Airport:

Trip Planner

Search our weather history database for the weather conditions in past years. The results will help you decide how hot, cold, wet, or windy it might be!

Date:

Astronomy

Mar. 06, 2014 Rise Set
Actual Time 5:53 AM AST 5:39 PM AST
Civil Twilight 5:30 AM AST 6:02 PM AST
Nautical Twilight 5:03 AM AST 6:28 PM AST
Astronomical Twilight 4:37 AM AST 6:55 PM AST
Moon 9:17 AM AST (3/6) 10:47 PM AST (3/6)
Length of Visible Light 12h 31m
Length of Day
11h 46m
Waxing Crescent, 29% of the Moon is Illuminated
Mar 6
Waxing Crescent
Mar 8
First Quarter
Mar 16
Full
Mar 24
Last Quarter
Mar 30
New

Hourly Weather History & Observations

Time (AST) Temp. Dew Point Humidity Pressure Visibility Wind Dir Wind Speed Gust Speed Precip Events Conditions
12:58 AM 64.6 °F 46.6 °F 52% 29.97 in 6.2 mi SSE 4.6 mph - N/A   Clear
1:58 AM 64.0 °F 47.3 °F 54% 29.95 in 6.2 mi SSE 5.8 mph - N/A   Clear
2:58 AM 63.5 °F 49.8 °F 61% 29.94 in 6.2 mi SSE 5.8 mph - N/A   Clear
3:58 AM 62.2 °F 49.1 °F 62% 29.94 in 6.2 mi SSW 2.3 mph - N/A   Clear
4:58 AM 62.4 °F 48.9 °F 61% 29.95 in 6.2 mi South 4.6 mph - N/A   Clear
5:58 AM 62.4 °F 48.4 °F 60% 29.97 in 6.2 mi SSW 4.6 mph - N/A   Clear
6:58 AM 66.0 °F 40.8 °F 40% 29.99 in 6.2 mi Calm Calm - N/A   Clear
7:58 AM 70.2 °F 42.6 °F 37% 30.02 in 6.2 mi SSE 4.6 mph - N/A   Clear
8:58 AM 75.6 °F 41.4 °F 29% 30.02 in 6.2 mi SSE 4.6 mph - N/A   Clear
9:58 AM 80.8 °F 44.4 °F 28% 30.02 in 6.2 mi SSE 6.9 mph - N/A   Clear
10:58 AM 84.7 °F 45.5 °F 25% 30.01 in 6.2 mi South 3.5 mph - N/A   Clear
11:58 AM 86.5 °F 45.1 °F 24% 29.99 in 6.2 mi Variable 4.6 mph - N/A   Clear
12:58 PM 88.2 °F 46.0 °F 23% 29.96 in 6.2 mi Variable 3.5 mph - N/A   Clear
1:58 PM 88.0 °F 48.4 °F 25% 29.94 in 6.2 mi ESE 11.5 mph - N/A   Clear
2:58 PM 86.9 °F 52.0 °F 30% 29.93 in 6.2 mi East 12.7 mph - N/A   Clear
3:58 PM 84.2 °F 48.6 °F 29% 29.93 in 6.2 mi East 11.5 mph - N/A   Clear
4:58 PM 81.0 °F 44.6 °F 28% 29.94 in 6.2 mi ESE 12.7 mph - N/A   Clear
5:58 PM 77.9 °F 45.3 °F 31% 29.94 in 6.2 mi ESE 9.2 mph - N/A   Clear
6:58 PM 74.5 °F 45.7 °F 36% 29.95 in 6.2 mi ESE 10.4 mph - N/A   Clear
7:58 PM 71.8 °F 48.0 °F 43% 29.95 in 6.2 mi SSE 8.1 mph - N/A   Clear
8:58 PM 70.5 °F 51.8 °F 51% 29.96 in 6.2 mi SE 9.2 mph - N/A   Clear
9:58 PM 69.1 °F 55.4 °F 62% 29.95 in 6.2 mi SSE 8.1 mph - N/A   Clear
10:58 PM 68.0 °F 56.8 °F 67% 29.94 in 6.2 mi SE 6.9 mph - N/A   Clear
11:58 PM 66.4 °F 57.2 °F 72% 29.94 in 6.2 mi SSE 9.2 mph - N/A   Clear